Time,TemperatureF,DewpointF,PressureIn,WindDirection,WindDirectionDegrees,WindSpeedMPH,WindSpeedGustMPH,Humidity,HourlyPrecipIn,Conditions,Clouds,dailyrainin,SoftwareType,DateUTC
2013-01-27 22:10:00,41.0,38.9,30.23,ESE,108,2.0,2.0,92,2.95,,---,0.11,VWS V14.01,2013-01-28 03:10:00,
2013-01-27 22:11:00,41.1,39.0,30.23,SSE,167,1.0,2.0,92,0.00,,---,0.11,VWS V14.01,2013-01-28 03:11:00,
2013-01-27 22:12:00,41.1,39.0,30.23,SSE,158,1.0,1.0,92,0.00,,---,0.11,VWS V14.01,2013-01-28 03:12:00,
2013-01-27 22:13:00,41.1,39.0,30.23,ESE,112,1.0,1.0,92,0.00,,---,0.11,VWS V14.01,2013-01-28 03:13:00,
2013-01-27 22:14:00,41.1,39.0,30.23,ESE,112,0.0,1.0,92,0.00,,---,0.11,VWS V14.01,2013-01-28 03:14:00,
2013-01-27 22:15:00,41.1,38.7,30.23,ESE,112,0.0,0.0,91,0.00,,---,0.11,VWS V14.01,2013-01-28 03:15:00,
2013-01-27 22:16:00,41.1,38.7,30.23,East,90,1.0,1.0,91,0.00,,---,0.11,VWS V14.01,2013-01-28 03:16:00,
2013-01-27 22:17:00,41.1,38.7,30.22,East,90,1.0,3.0,91,0.00,,---,0.11,VWS V14.01,2013-01-28 03:17:00,
2013-01-27 22:18:00,41.1,38.7,30.22,SSE,158,1.0,2.0,91,0.00,,---,0.11,VWS V14.01,2013-01-28 03:18:00,
2013-01-27 22:19:00,41.1,38.7,30.22,ESE,112,3.0,4.0,91,0.00,,---,0.11,VWS V14.01,2013-01-28 03:19:00,
2013-01-27 22:20:00,41.2,38.8,30.22,ESE,112,1.0,2.0,91,0.00,,---,0.11,VWS V14.01,2013-01-28 03:20:00,
2013-01-27 22:21:00,41.2,38.8,30.22,SE,135,1.0,2.0,91,0.00,,---,0.11,VWS V14.01,2013-01-28 03:21:00,
2013-01-27 22:22:00,41.2,38.8,30.22,ESE,112,2.0,4.0,91,0.00,,---,0.11,VWS V14.01,2013-01-28 03:22:00,
2013-01-27 22:23:00,41.2,38.8,30.22,ESE,112,1.0,1.0,91,0.00,,---,0.11,VWS V14.01,2013-01-28 03:23:00,
2013-01-27 22:24:00,41.2,38.8,30.22,SE,135,0.0,1.0,91,0.00,,---,0.11,VWS V14.01,2013-01-28 03:24:00,
2013-01-27 22:25:00,41.2,38.8,30.22,SSE,158,0.0,1.0,91,0.00,,---,0.11,VWS V14.01,2013-01-28 03:25:00,
2013-01-27 22:26:00,41.2,38.8,30.22,SE,135,2.0,3.0,91,0.00,,---,0.11,VWS V14.01,2013-01-28 03:26:00,
2013-01-27 22:27:00,41.2,38.8,30.22,SSE,158,1.0,3.0,91,0.00,,---,0.11,VWS V14.01,2013-01-28 03:27:00,
2013-01-27 22:28:00,41.2,38.8,30.22,SE,135,2.0,4.0,91,0.00,,---,0.11,VWS V14.01,2013-01-28 03:28:00,
2013-01-27 22:29:00,41.2,38.8,30.22,SE,135,1.0,1.0,91,0.00,,---,0.11,VWS V14.01,2013-01-28 03:29:00,
2013-01-27 22:30:00,41.2,38.8,30.22,SE,135,3.0,6.0,91,0.00,,---,0.11,VWS V14.01,2013-01-28 03:30:00,
2013-01-27 22:31:00,41.3,38.9,30.22,SSE,158,2.0,4.0,91,0.00,,---,0.11,VWS V14.01,2013-01-28 03:31:00,
2013-01-27 22:32:00,41.3,38.9,30.22,South,180,0.0,1.0,91,0.00,,---,0.11,VWS V14.01,2013-01-28 03:32:00,
2013-01-27 22:33:00,41.3,38.9,30.22,SSE,158,1.0,2.0,91,0.00,,---,0.11,VWS V14.01,2013-01-28 03:33:00,
2013-01-27 22:34:00,41.3,38.9,30.22,SSE,158,1.0,4.0,91,0.00,,---,0.11,VWS V14.01,2013-01-28 03:34:00,
2013-01-27 22:35:00,41.3,38.9,30.22,SW,225,0.0,1.0,91,0.00,,---,0.11,VWS V14.01,2013-01-28 03:35:00,
2013-01-27 22:36:00,41.3,38.9,30.22,SW,225,0.0,0.0,91,0.00,,---,0.11,VWS V14.01,2013-01-28 03:36:00,
2013-01-27 22:37:00,41.3,38.9,30.22,SW,225,0.0,0.0,91,0.00,,---,0.11,VWS V14.01,2013-01-28 03:37:00,
2013-01-27 22:38:00,41.3,38.9,30.22,NNE,22,0.0,1.0,91,0.00,,---,0.11,VWS V14.01,2013-01-28 03:38:00,
2013-01-27 22:39:00,41.3,38.9,30.22,ESE,112,1.0,2.0,91,0.00,,---,0.11,VWS V14.01,2013-01-28 03:39:00,
2013-01-27 22:40:00,41.3,38.9,30.22,SSE,158,1.0,2.0,91,0.00,,---,0.11,VWS V14.01,2013-01-28 03:40:00,
2013-01-27 22:41:00,41.3,38.9,30.22,ENE,68,1.0,2.0,91,0.00,,---,0.11,VWS V14.01,2013-01-28 03:41:00,
2013-01-27 22:42:00,41.3,38.9,30.22,West,270,2.0,4.0,91,0.00,,---,0.11,VWS V14.01,2013-01-28 03:42:00,
2013-01-27 22:43:00,41.4,39.0,30.22,South,180,1.0,4.0,91,0.00,,---,0.11,VWS V14.01,2013-01-28 03:43:00,
2013-01-27 22:44:00,41.4,39.0,30.22,SSE,158,1.0,1.0,91,0.00,,---,0.11,VWS V14.01,2013-01-28 03:44:00,
2013-01-27 22:45:00,41.4,39.0,30.22,SE,135,0.0,1.0,91,0.00,,---,0.11,VWS V14.01,2013-01-28 03:45:00,
2013-01-27 22:46:00,41.4,39.0,30.22,SE,135,1.0,2.0,91,0.00,,---,0.11,VWS V14.01,2013-01-28 03:46:00,
2013-01-27 22:47:00,41.4,39.0,30.22,SE,135,1.0,2.0,91,0.00,,---,0.11,VWS V14.01,2013-01-28 03:47:00,
2013-01-27 22:48:00,41.4,39.0,30.23,SSW,202,1.0,2.0,91,0.00,,---,0.11,VWS V14.01,2013-01-28 03:48:00,
2013-01-27 22:49:00,41.4,39.0,30.22,SSW,202,0.0,0.0,91,0.00,,---,0.11,VWS V14.01,2013-01-28 03:49:00,
2013-01-27 22:50:00,41.4,39.0,30.22,SSW,202,0.0,0.0,91,0.00,,---,0.11,VWS V14.01,2013-01-28 03:50:00,
2013-01-27 22:51:00,41.4,39.0,30.23,SSE,158,2.0,5.0,91,0.00,,---,0.11,VWS V14.01,2013-01-28 03:51:00,
2013-01-27 22:52:00,41.4,39.0,30.22,SSE,158,1.0,1.0,91,0.00,,---,0.11,VWS V14.01,2013-01-28 03:52:00,
2013-01-27 22:53:00,41.4,39.0,30.22,SE,135,2.0,4.0,91,0.00,,---,0.11,VWS V14.01,2013-01-28 03:53:00,
2013-01-27 22:54:00,41.5,39.1,30.22,SE,135,1.0,4.0,91,0.00,,---,0.11,VWS V14.01,2013-01-28 03:54:00,
2013-01-27 22:55:00,41.5,39.1,30.22,SSE,158,2.0,4.0,91,0.00,,---,0.11,VWS V14.01,2013-01-28 03:55:00,
2013-01-27 22:56:00,41.5,39.1,30.22,ESE,112,1.0,1.0,91,0.00,,---,0.11,VWS V14.01,2013-01-28 03:56:00,
2013-01-27 22:57:00,41.5,39.1,30.22,SSE,158,1.0,1.0,91,0.00,,---,0.11,VWS V14.01,2013-01-28 03:57:00,
2013-01-27 22:58:00,41.5,39.1,30.22,SSE,158,1.0,3.0,91,0.00,,---,0.11,VWS V14.01,2013-01-28 03:58:00,
2013-01-27 22:59:00,41.5,39.1,30.22,ESE,112,2.0,3.0,91,0.00,,---,0.11,VWS V14.01,2013-01-28 03:59:00,
2013-01-27 23:00:00,41.5,39.1,30.22,ENE,68,1.0,2.0,91,0.00,,---,0.11,VWS V14.01,2013-01-28 04:00:00,
2013-01-27 23:01:00,41.5,39.1,30.22,SE,135,1.0,2.0,91,0.00,,---,0.11,VWS V14.01,2013-01-28 04:01:00,
2013-01-27 23:02:00,41.5,39.1,30.22,SE,135,1.0,2.0,91,0.00,,---,0.11,VWS V14.01,2013-01-28 04:02:00,
2013-01-27 23:03:00,41.5,39.1,30.22,SSE,158,1.0,2.0,91,0.00,,---,0.11,VWS V14.01,2013-01-28 04:03:00,
2013-01-27 23:04:00,41.6,39.2,30.21,ESE,112,1.0,1.0,91,0.00,,---,0.11,VWS V14.01,2013-01-28 04:04:00,
2013-01-27 23:05:00,41.5,39.1,30.21,South,180,2.0,4.0,91,0.00,,---,0.11,VWS V14.01,2013-01-28 04:05:00,
2013-01-27 23:06:00,41.6,39.2,30.21,ESE,112,2.0,3.0,91,0.00,,---,0.11,VWS V14.01,2013-01-28 04:06:00,
2013-01-27 23:07:00,41.6,39.2,30.21,SSW,202,1.0,2.0,91,0.00,,---,0.11,VWS V14.01,2013-01-28 04:07:00,
2013-01-27 23:08:00,41.6,38.9,30.21,SSE,158,1.0,2.0,90,0.00,,---,0.11,VWS V14.01,2013-01-28 04:08:00,
2013-01-27 23:09:00,41.6,38.9,30.22,SSE,158,2.0,4.0,90,0.00,,---,0.11,VWS V14.01,2013-01-28 04:09:00,
2013-01-27 23:10:00,41.6,38.9,30.21,SE,135,1.0,1.0,90,0.00,,---,0.11,VWS V14.01,2013-01-28 04:10:00,
2013-01-27 23:11:00,41.7,39.0,30.21,SSE,158,1.0,2.0,90,0.00,,---,0.11,VWS V14.01,2013-01-28 04:11:00,
2013-01-27 23:12:00,41.7,39.0,30.21,SE,135,1.0,2.0,90,0.00,,---,0.11,VWS V14.01,2013-01-28 04:12:00,
2013-01-27 23:13:00,41.7,39.0,30.21,ESE,112,0.0,1.0,90,0.00,,---,0.11,VWS V14.01,2013-01-28 04:13:00,
2013-01-27 23:14:00,41.7,39.0,30.22,SE,135,1.0,2.0,90,0.00,,---,0.11,VWS V14.01,2013-01-28 04:14:00,
2013-01-27 23:15:00,41.8,39.1,30.22,South,180,2.0,5.0,90,0.00,,---,0.11,VWS V14.01,2013-01-28 04:15:00,
2013-01-27 23:16:00,41.8,39.1,30.22,SSE,158,2.0,3.0,90,0.00,,---,0.11,VWS V14.01,2013-01-28 04:16:00,
2013-01-27 23:17:00,41.8,39.1,30.22,SW,225,1.0,1.0,90,0.00,,---,0.11,VWS V14.01,2013-01-28 04:17:00,
2013-01-27 23:18:00,41.9,39.2,30.21,SE,135,1.0,3.0,90,0.00,,---,0.11,VWS V14.01,2013-01-28 04:18:00,
2013-01-27 23:19:00,41.9,39.2,30.21,ESE,112,1.0,2.0,90,0.00,,---,0.11,VWS V14.01,2013-01-28 04:19:00,
2013-01-27 23:20:00,41.9,39.2,30.21,ESE,112,2.0,3.0,90,0.00,,---,0.11,VWS V14.01,2013-01-28 04:20:00,
2013-01-27 23:21:00,42.0,39.3,30.21,ESE,112,1.0,2.0,90,0.00,,---,0.11,VWS V14.01,2013-01-28 04:21:00,
2013-01-27 23:22:00,41.9,39.2,30.21,SE,135,2.0,4.0,90,0.00,,---,0.11,VWS V14.01,2013-01-28 04:22:00,
2013-01-27 23:23:00,42.0,39.3,30.21,SE,135,1.0,2.0,90,0.00,,---,0.11,VWS V14.01,2013-01-28 04:23:00,
2013-01-27 23:24:00,42.0,39.3,30.21,East,90,2.0,3.0,90,0.00,,---,0.11,VWS V14.01,2013-01-28 04:24:00,
2013-01-27 23:25:00,42.1,39.4,30.21,ESE,112,2.0,5.0,90,0.00,,---,0.11,VWS V14.01,2013-01-28 04:25:00,
2013-01-27 23:26:00,42.1,39.4,30.21,East,90,1.0,2.0,90,0.00,,---,0.11,VWS V14.01,2013-01-28 04:26:00,
2013-01-27 23:27:00,42.2,39.5,30.21,ESE,112,1.0,2.0,90,0.00,,---,0.11,VWS V14.01,2013-01-28 04:27:00,
2013-01-27 23:28:00,42.2,39.5,30.21,ESE,112,1.0,2.0,90,0.00,,---,0.11,VWS V14.01,2013-01-28 04:28:00,
2013-01-27 23:29:00,42.2,39.5,30.21,SSE,158,2.0,5.0,90,0.00,,---,0.11,VWS V14.01,2013-01-28 04:29:00,
2013-01-27 23:30:00,42.2,39.5,30.21,SSE,158,1.0,4.0,90,0.00,,---,0.11,VWS V14.01,2013-01-28 04:30:00,
2013-01-27 23:31:00,42.2,39.5,30.21,ESE,112,0.0,1.0,90,0.00,,---,0.11,VWS V14.01,2013-01-28 04:31:00,
2013-01-27 23:32:00,42.2,39.5,30.21,SSE,158,0.0,1.0,90,0.00,,---,0.11,VWS V14.01,2013-01-28 04:32:00,
2013-01-27 23:33:00,42.3,39.6,30.21,ESE,112,2.0,3.0,90,0.00,,---,0.11,VWS V14.01,2013-01-28 04:33:00,
2013-01-27 23:34:00,42.3,39.6,30.21,East,90,2.0,2.0,90,0.00,,---,0.11,VWS V14.01,2013-01-28 04:34:00,
2013-01-27 23:35:00,42.3,39.6,30.21,SSE,158,1.0,2.0,90,0.00,,---,0.11,VWS V14.01,2013-01-28 04:35:00,
2013-01-27 23:36:00,42.3,39.6,30.21,SSE,158,1.0,2.0,90,0.00,,---,0.11,VWS V14.01,2013-01-28 04:36:00,
2013-01-27 23:37:00,42.3,39.6,30.21,SSE,158,1.0,2.0,90,0.00,,---,0.11,VWS V14.01,2013-01-28 04:37:00,
2013-01-27 23:38:00,42.4,39.7,30.21,ESE,112,0.0,2.0,90,0.00,,---,0.11,VWS V14.01,2013-01-28 04:38:00,
2013-01-27 23:39:00,42.4,39.7,30.21,SE,135,1.0,2.0,90,0.00,,---,0.11,VWS V14.01,2013-01-28 04:39:00,
2013-01-27 23:40:00,42.4,39.7,30.20,ESE,112,1.0,2.0,90,0.00,,---,0.11,VWS V14.01,2013-01-28 04:40:00,
2013-01-27 23:41:00,42.4,39.7,30.20,SSE,158,1.0,2.0,90,0.00,,---,0.11,VWS V14.01,2013-01-28 04:41:00,
2013-01-27 23:42:00,42.4,39.7,30.20,SSE,158,1.0,3.0,90,0.00,,---,0.11,VWS V14.01,2013-01-28 04:42:00,
2013-01-27 23:43:00,42.5,39.8,30.20,SE,135,1.0,2.0,90,0.00,,---,0.11,VWS V14.01,2013-01-28 04:43:00,
2013-01-27 23:44:00,42.5,39.8,30.20,SSE,158,2.0,3.0,90,0.00,,---,0.11,VWS V14.01,2013-01-28 04:44:00,
2013-01-27 23:45:00,42.5,39.8,30.20,SE,135,3.0,6.0,90,0.00,,---,0.11,VWS V14.01,2013-01-28 04:45:00,
2013-01-27 23:46:00,42.6,39.6,30.20,SE,135,3.0,4.0,89,0.00,,---,0.11,VWS V14.01,2013-01-28 04:46:00,
2013-01-27 23:47:00,42.6,39.6,30.20,SE,135,1.0,3.0,89,0.00,,---,0.11,VWS V14.01,2013-01-28 04:47:00,
2013-01-27 23:48:00,42.7,39.7,30.20,ESE,112,1.0,3.0,89,0.00,,---,0.11,VWS V14.01,2013-01-28 04:48:00,
2013-01-27 23:49:00,42.7,39.7,30.20,SE,135,2.0,3.0,89,0.00,,---,0.11,VWS V14.01,2013-01-28 04:49:00,
2013-01-27 23:50:00,42.7,39.7,30.20,SSE,158,1.0,3.0,89,0.00,,---,0.11,VWS V14.01,2013-01-28 04:50:00,
2013-01-27 23:51:00,42.8,39.8,30.20,ESE,112,2.0,4.0,89,0.00,,---,0.11,VWS V14.01,2013-01-28 04:51:00,
2013-01-27 23:52:00,42.8,39.8,30.20,ESE,112,1.0,5.0,89,0.00,,---,0.11,VWS V14.01,2013-01-28 04:52:00,
2013-01-27 23:53:00,42.8,39.8,30.20,SE,135,3.0,6.0,89,0.00,,---,0.11,VWS V14.01,2013-01-28 04:53:00,
2013-01-27 23:54:00,42.8,39.8,30.20,SE,135,4.0,8.0,89,0.00,,---,0.11,VWS V14.01,2013-01-28 04:54:00,
2013-01-27 23:55:00,42.9,39.9,30.20,ESE,112,3.0,6.0,89,0.00,,---,0.11,VWS V14.01,2013-01-28 04:55:00,
2013-01-27 23:56:00,43.0,40.0,30.20,SSE,158,3.0,4.0,89,0.00,,---,0.11,VWS V14.01,2013-01-28 04:56:00,
2013-01-27 23:57:00,43.0,40.0,30.19,SE,135,3.0,4.0,89,0.00,,---,0.11,VWS V14.01,2013-01-28 04:57:00,
2013-01-27 23:58:00,43.1,40.1,30.19,East,90,4.0,8.0,89,0.00,,---,0.11,VWS V14.01,2013-01-28 04:58:00,
2013-01-27 23:59:00,43.1,40.1,30.19,SE,135,3.0,5.0,89,0.00,,---,0.11,VWS V14.01,2013-01-28 04:59:00,